Regional Weather Roundup
Issued by NWS

Home | Current Version | Previous Version | Text Only | Print | Product List | Glossary Off
Versions: 1 2 3 4 5 6 7 8 9 10 11 12 13 14 15 16 17 18 19 20 21 22 23 24 25 26 27 28 29 30 31 32 33 34 35 36 37 38 39 40 41 42 43 44 45 46 47 48 49 50

000
ASUS43 KDTX 281510
RWRMI
MICHIGAN HOURLY REGIONAL WEATHER ROUNDUP
NATIONAL WEATHER SERVICE DETROIT/PONTIAC MI
1100 AM EDT MON JUL 28 2014

NOTE: "FAIR" INDICATES FEW OR NO CLOUDS BELOW 12,000 FEET WITH NO
SIGNIFICANT WEATHER AND/OR OBSTRUCTION TO VISIBILITY.

MIZ047>049-052>055-059>063-066>070-074>076-081>083-281600-
SOUTHEAST LOWER MICHIGAN

CITY           SKY/WX    TMP DP  RH WIND       PRES   REMARKS
ADRIAN         PTSUNNY   66  55  67 N15       29.93R
ALMA           CLOUDY    60  53  76 N8G17     29.96R
ANN ARBOR      MOSUNNY   66  52  60 N15G22    29.91R
BAD AXE        CLOUDY    59  49  70 N12G20    29.92R
CARO           CLOUDY    62  54  75 N9G18     29.92R
DETROIT CITY   LGT RAIN  65  53  65 N13G21    29.88R
DETROIT        CLOUDY    63  54  72 NW15      29.89R
FLINT          PTSUNNY   65  53  65 N14       29.91S
GROSSE ILE     PTSUNNY   66  57  72 NW15      29.87R
HILLSDALE      PTSUNNY   65  57  77 N8G16     29.94R
HOWELL         CLOUDY    62  56  80 N7        29.92R

CITY           SKY/WX    TMP DP  RH WIND       PRES   REMARKS
JACKSON        CLOUDY    65  56  72 VRB7      29.93S
LAMBERTVILLE   PTSUNNY   66  55  68 NW9       29.91R
LANSING        CLOUDY    62  53  72 NW9       29.95R
LAPEER         CLOUDY    60  51  72 N10       29.91S
MASON          CLOUDY    62  55  76 N12       29.94R
MONROE         PTSUNNY   66  55  68 N14       29.88R
MT. CLEMENS    CLOUDY    63  54  74 N18G24    29.86R
PONTIAC        PTSUNNY   62  52  69 N14       29.90R
PORT HOPE        N/A     60  51  72 VRB7G21   29.90R
PORT HURON     CLOUDY    61  55  82 N15G21    29.87R
TRI CITIES     CLOUDY    62  54  74 N13       29.95R
TROY           CLOUDY    62  54  74 N10       29.90R
SAGINAW HB     CLOUDY    61  52  72 N10       29.93S
$$
MIZ043>046-050>051-056>058-064>065-071>073-077>080-281600-
SOUTHWEST LOWER MICHIGAN

CITY           SKY/WX    TMP DP  RH WIND       PRES   REMARKS
BATTLE CREEK   CLOUDY    63  54  72 N8        29.97R
BENTON HARBOR  CLOUDY    57  52  83 N13G23    30.02R
BIG RAPIDS     PTSUNNY   60  53  76 N8        29.98S
COLDWATER      CLOUDY    65  57  75 N10G16    29.96R
FREMONT        CLOUDY    62  52  70 N14       30.00S
HOLLAND        CLOUDY    63  54  72 N7        30.01R
GRAND RAPIDS   CLOUDY    63  55  75 NW14      29.98R
IONIA          CLOUDY    62  54  75 NW8       29.95S
KALAMAZOO      CLOUDY    62  54  74 N9        29.99R
LUDINGTON      PTSUNNY   57  50  78 N13G22    30.04R
MARSHALL       CLOUDY    61  55  79 NW6       29.95R
MOUNT PLEASANT PTSUNNY   62  54  76 NW5       29.96S
MUSKEGON       CLOUDY    61  51  70 N12       30.01S
SOUTH HAVEN    CLOUDY    56  55  93 NW12G17   30.02R
$$
MIZ016>042-281600-
NORTHERN LOWER MICHIGAN

CITY           SKY/WX    TMP DP  RH WIND       PRES   REMARKS
ALPENA         CLOUDY    57  45  64 N14       29.97R
BEAVER ISLAND  MOSUNNY   58  48  69 NW10G16   30.05S
BELLAIRE       PTSUNNY   58  45  61 N7        30.02R
CADILLAC       CLOUDY    55  51  87 N10G16    29.99R
CHARLEVOIX     CLOUDY    57  43  59 N15       30.06R
FRANKFORT      PTSUNNY   60  47  62 N12G18    30.05R
GAYLORD        CLOUDY    53  44  71 VRB5      30.00R
GRAYLING       CLOUDY    56  49  76 N10G16    30.00R
HARBOR SPRINGS CLOUDY    57  43  59 N12       30.02S
HOUGHTON LAKE  CLOUDY    58  49  72 N9        29.98R
MANISTEE       CLOUDY    57  46  67 N13G21    30.04S
OSCODA         CLOUDY    60  49  68 N9G18     29.93S
PELLSTON       CLOUDY    58  43  57 NE17      30.03R
ROGERS CITY    CLOUDY    55  46  71 N9        30.00R
TRAVERSE CITY  CLOUDY    59  44  57 N14G21    30.02R
$$
MIZ007>008-015-281600-
EASTERN UPPER MICHIGAN

CITY           SKY/WX    TMP DP  RH WIND       PRES   REMARKS
KINROSS        CLOUDY    57  46  67 NW14G21   30.01S
MACKINAC ISLAN CLOUDY    57  46  66 N9        30.01S
NEWBERRY       SUNNY     57  44  62 NW12G18   30.04S
S. S. MARIE    CLOUDY    59  43  55 N6        30.00S
MUNISING         N/A     59  46  62 NW8       30.08S
$$
MIZ004>006-011>014-085-281600-
CENTRAL UPPER MICHIGAN

CITY           SKY/WX    TMP DP  RH WIND       PRES   REMARKS
MANISTIQUE     SUNNY     60  45  55 N10G16    30.06S
ESCANABA       MOSUNNY   61  43  51 N8        30.09S
MENOMINEE      CLOUDY    57  45  62 N7        30.10S
SAWYER-GWINN   PTSUNNY   57  43  58 NE3       30.09S
$$
MIZ001>003-009>011-084-281600-
WESTERN UPPER MICHIGAN

CITY           SKY/WX    TMP DP  RH WIND       PRES   REMARKS
IRON MOUNTAIN  SUNNY     61  49  64 NW3       30.09S
COPPER HARBOR    N/A     60  52  74 N15       30.07R
IRONWOOD       MOSUNNY   63  55  77 N9        30.12F
$$

ABBREVIATIONS USED IN REMARKS
   TC - TEMPERATURE IN CELSIUS
  WCI - WIND CHILL INDEX
   HX - HEAT INDEX
  VSB - VISIBILITY




USA.gov is the U.S. government's official web portal to all federal, state and local government web resources and services.